Location: Chandler Mountain
(33.9167°N, 86.2833°W)
Time: 21:05:47
(UTC-05:00)

ISS - Visible Passes

Search period start: 18 October 2018 00:00
Search period end: 28 October 2018 00:00
Orbit: 403 x 408 km, 51.6° (Epoch: 19 October)

Date Brightness Start Highest point End Pass type
(mag) Time Alt. Az. Time Alt. Az. Time Alt. Az.
22 Oct -0.3 06:30:11 10° SSE 06:31:19 11° SE 06:32:28 10° ESE visible
24 Oct -1.9 06:20:38 10° SSW 06:23:34 32° SE 06:26:32 10° ENE visible
25 Oct -0.8 05:29:44 10° SSE 05:31:43 15° SE 05:33:43 10° E visible
26 Oct -3.9 06:12:39 10° SW 06:15:55 81° NW 06:19:11 10° NE visible
27 Oct -2.8 05:23:10 36° S 05:23:56 43° SE 05:27:04 10° ENE visible
